Weather in Novaya Zhizn

Russia / Stavropol Krai     44°53′32″N   44°05′06″E
temp.,
°C
wind,
m/s
gust,
m/s
humid.,
%
clouds,
%
prec.,
mm/h
press.,
hPa
HPBL,
m
20 april, tue
tue2000:00+14se3488100 0.0 101577
03:00+13ese4892100 0.0 1013149
06:00+12ese61379100 0.0 1011326
09:00+15se101763100 0.0 1008539
12:00+20se91353100 0.0 1006767
15:00+22se6951100 0.1 1006847
18:00+20ne1161100 0.0 100711
21:00+15nw61279100 0.1 1011460
21 april, wed
wed2100:00+14nw51176100 0.3 1013581
03:00+13nw51176100 0.8 1015485
06:00+11nw51274100 0.1 1017461
09:00+11wnw5877100 0.1 1019633
12:00+12nw5770100 0.0 1019686
15:00+16nnw675527 0.0 10191133
18:00+13nw3466100 0.0 1020256
21:00+12nw2471100 0.0 1021114
22 april, thu
thu2200:00+12nw2272100 0.0 102150
03:00+11nnw2376100 0.0 102173
06:00+11nnw4687100 0.1 1022261
09:00+10ene3696100 8.4 1023293
12:00+11e3386100 3.3 1024351
15:00+12s1182100 3.3 1023270
18:00+12ene1179100 0.0 102298
21:00+10nw0088100 0.0 102310
23 april, fri
fri2300:00+10w2286100 0.0 102233
03:00+10w2291100 0.3 102238
06:00+10w3592100 0.4 1023174
09:00+13wsw4475100 0.6 1023518
12:00+16w335791 0.8 10211501
15:00+17w235155 1.3 10211513
18:00+16w22630 0.4 102040
21:00+12wnw11730 0.4 102110
24 april, sat
sat2400:00+11wsw0078100 0.0 102010
03:00+11ssw1180100 0.0 101910
06:00+12wsw1179100 0.0 101913
09:00+14sse227275 0.3 1019335
12:00+18ssw34545 1.1 10191318
15:00+20sw244524 1.5 10182054
18:00+17ssw1256100 0.0 101816
21:00+16wnw2363100 0.1 101952